GFSSW_850_rhum_162.txt.gz
RH
36 35 34 33 32 30 29 26 24 21 18 13 8 8 8 8 7 6 9 12 9 16 14 13 19 22 44 43 40 59 76 80 68 68 59 49 53 54 54 56 61 66 69 66 85
42 40 39 37 35 33 30 28 24 21 16 14 10 7 8 8 7 5 8 8 11 14 15 16 20 22 31 28 44 64 78 64 60 54 55 53 50 51 59 61 64 67 69 73 82
42 42 40 39 38 35 33 30 26 21 16 13 10 7 7 8 7 5 8 5 10 10 10 12 22 24 25 31 49 65 66 58 60 60 57 51 51 48 57 63 56 61 74 80 82
29 30 31 32 33 33 31 31 27 22 17 14 10 8 8 9 17 22 14 4 8 10 10 13 14 15 18 22 28 57 55 50 54 51 58 56 52 56 50 47 45 51 56 73 77
31 30 28 28 27 28 28 27 28 23 18 16 15 11 10 11 8 23 18 9 5 8 13 14 11 15 21 20 47 57 58 48 52 57 58 55 54 58 50 53 49 51 62 71 70
28 29 30 31 30 28 26 23 27 24 19 17 22 16 13 15 6 17 23 12 4 7 14 13 10 15 17 16 30 42 56 57 56 56 58 57 58 51 58 54 52 52 61 63 63
24 24 23 24 29 29 27 22 25 24 19 16 26 23 15 5 21 16 23 17 4 7 12 13 15 16 17 15 47 53 56 51 59 62 60 54 58 64 57 56 54 59 58 62 57
26 26 25 23 23 26 28 21 23 23 19 16 25 24 13 4 22 24 12 15 9 11 13 9 8 11 15 15 46 52 52 58 53 65 60 62 72 64 57 59 60 60 60 67 57
16 19 24 25 22 24 26 20 20 19 20 18 23 23 15 9 19 22 10 8 12 13 12 10 13 13 13 26 35 50 65 63 54 59 67 71 74 59 55 60 64 60 60 64 64
16 14 19 25 23 23 24 19 32 38 24 22 27 31 13 14 19 20 19 10 10 11 11 11 11 16 21 24 25 30 64 61 61 55 67 78 78 67 62 61 61 61 58 62 61
23 16 14 22 22 23 20 24 38 40 35 26 24 17 17 20 20 17 18 11 10 10 13 12 14 16 15 16 18 25 46 45 48 48 62 71 71 67 64 58 58 60 60 58 54
30 23 14 19 20 21 30 32 34 35 38 25 26 28 25 22 22 17 15 17 15 19 12 14 16 13 13 14 14 16 18 21 25 48 60 57 63 59 61 61 54 53 54 53 48
33 27 17 16 21 23 34 31 32 32 39 26 26 27 24 23 24 21 18 20 18 21 15 16 13 13 12 14 14 14 16 18 22 50 54 52 53 62 61 58 56 55 49 53 45
33 30 21 14 22 30 31 29 28 28 36 25 26 25 26 22 22 19 16 18 15 22 17 15 13 13 14 14 15 16 13 13 15 43 56 48 68 48 59 67 60 56 56 54 49
32 29 24 14 18 24 28 27 27 26 34 21 22 24 24 22 19 21 17 17 17 17 17 20 14 16 17 16 13 15 11 12 17 48 47 58 65 54 72 71 67 59 57 55 46
31 28 22 14 19 22 26 27 27 37 34 21 19 20 26 20 15 19 19 17 14 14 13 17 12 12 13 13 12 10 12 16 29 66 76 58 64 61 42 43 48 56 54 52 46
29 25 16 16 25 26 24 24 35 44 23 21 19 16 20 18 16 18 20 20 22 22 23 21 19 15 13 15 14 13 17 25 22 38 67 38 55 51 27 37 46 56 54 52 43
26 17 29 22 23 30 29 34 36 25 31 22 22 19 16 15 15 15 23 26 22 24 30 28 28 20 16 18 18 15 19 26 22 25 21 36 43 38 31 29 29 38 45 50 47
22 28 29 22 24 30 31 43 25 30 26 28 26 18 19 16 16 16 24 27 24 22 26 29 26 17 16 14 14 16 16 15 22 22 24 24 24 19 22 28 33 43 50 49 47
20 35 38 26 26 34 33 37 38 35 28 29 26 23 22 21 19 18 19 15 16 22 19 24 27 19 15 13 14 16 15 19 24 21 22 23 24 27 20 16 22 42 52 49 47
19 36 41 31 39 34 33 42 39 28 28 30 30 30 22 21 20 20 19 17 20 18 21 23 24 19 14 17 19 16 18 21 23 26 27 28 25 28 27 21 25 31 28 42 45
20 51 45 41 45 67 57 47 35 32 27 30 30 32 24 23 22 21 21 26 29 18 21 20 28 30 24 18 15 16 18 20 24 22 29 27 23 15 24 29 46 40 30 31 34
34 47 46 47 60 59 48 38 33 31 30 28 26 26 25 26 27 25 26 31 26 34 34 21 29 33 28 22 17 17 18 19 24 26 34 27 21 18 39 47 38 48 34 34 34
56 64 44 43 48 48 50 42 34 28 28 28 26 26 28 30 32 30 34 29 28 31 41 37 33 29 34 26 23 22 18 19 20 27 27 26 18 15 15 20 38 50 44 37 36
58 80 73 74 60 60 49 41 39 40 31 30 30 34 38 37 40 40 33 32 28 26 36 42 41 41 39 39 32 26 22 20 20 21 24 23 22 18 18 30 44 41 49 43 43
67 74 65 69 65 53 55 50 45 45 38 33 35 34 33 36 35 39 32 33 35 27 29 46 48 52 46 37 42 33 26 24 24 21 22 20 26 22 30 53 54 46 53 56 52
52 62 70 66 70 58 57 54 48 48 38 34 38 35 33 33 38 32 26 24 27 31 34 42 47 54 56 52 53 45 34 27 23 23 24 30 24 23 38 59 52 48 49 54 50

GFSSW_850_rhum_165.txt.gz
RH
40 38 37 35 32 30 28 26 23 21 19 16 10 7 7 6 6 7 9 12 10 16 13 17 21 24 45 47 50 57 58 58 53 54 47 48 49 55 59 54 60 69 71 79 82
40 40 38 37 36 34 31 28 25 22 18 15 12 8 7 7 6 5 8 10 11 15 13 14 20 24 36 29 51 49 61 50 45 46 45 51 46 51 51 53 59 75 78 84 82
30 30 31 32 32 32 32 29 26 23 18 14 11 8 7 8 7 4 5 7 10 13 15 19 20 23 26 32 46 58 50 45 45 51 54 48 46 46 46 50 50 56 88 93 93
32 31 29 28 28 28 29 28 27 24 19 15 12 8 8 8 11 19 16 5 8 12 12 16 26 20 18 20 29 39 44 47 47 53 56 49 51 47 48 45 50 54 77 88 91
27 27 28 29 29 28 27 27 25 25 20 15 16 12 10 10 9 24 18 10 8 10 10 12 17 16 20 19 32 43 40 50 47 56 57 57 49 47 49 54 54 48 73 82 84
25 24 24 23 24 28 28 27 23 25 21 15 21 18 13 12 7 14 19 12 6 10 12 14 12 12 18 16 21 38 48 52 56 55 58 52 51 52 54 59 63 60 69 75 80
22 24 25 24 22 22 26 26 22 24 23 18 18 24 20 7 11 19 22 12 5 8 12 13 13 18 18 13 47 50 50 47 50 58 52 54 54 50 58 61 62 61 64 70 76
18 15 18 23 24 21 24 26 21 22 22 19 16 24 18 5 12 23 22 13 7 9 13 14 13 12 16 16 44 43 45 53 45 58 58 53 53 53 61 59 57 58 62 66 69
23 19 14 20 23 22 25 24 20 20 20 20 19 23 17 11 15 24 12 14 9 13 14 10 11 13 15 14 19 39 34 49 46 55 56 57 54 53 60 56 52 57 57 60 66
33 26 19 15 21 22 24 20 29 38 26 23 22 28 13 13 13 23 10 10 12 15 13 12 13 12 14 13 22 21 34 47 49 45 58 56 60 48 63 57 52 52 55 58 58
35 32 24 15 19 21 21 22 38 40 34 22 25 17 19 24 20 21 19 9 11 12 10 12 12 17 14 13 14 20 23 19 24 27 44 42 41 42 54 59 56 53 54 53 53
35 33 27 16 20 22 28 32 32 31 33 28 29 26 22 24 23 20 21 12 11 10 12 12 16 12 10 12 12 12 13 14 18 31 41 32 37 38 50 53 52 54 50 51 50
37 32 29 17 22 30 34 32 30 32 35 28 27 26 24 23 24 22 18 17 15 18 12 13 13 11 11 12 12 12 11 13 17 22 32 44 34 42 44 55 54 51 50 49 48
39 32 28 20 19 30 32 31 30 31 26 21 25 26 25 22 21 21 17 19 17 17 17 15 12 12 12 13 11 14 10 11 14 16 16 44 31 35 38 48 53 52 49 47 49
39 32 27 22 15 23 31 30 28 28 26 21 23 26 26 20 21 22 18 19 17 18 15 12 15 14 14 12 12 12 10 11 14 18 24 32 40 24 46 38 38 45 49 48 45
36 27 25 15 17 22 28 29 29 26 28 19 22 23 24 24 16 22 18 16 17 14 14 15 13 11 11 12 11 10 12 14 33 36 30 22 31 16 24 26 17 29 40 46 48
31 24 18 19 22 22 26 29 26 27 22 21 19 21 20 21 16 19 20 18 21 25 23 16 14 12 11 12 12 12 14 19 19 28 18 30 40 19 18 21 24 20 25 43 49
26 21 29 21 28 30 29 25 29 23 26 21 22 20 20 15 16 18 21 22 19 19 22 23 22 18 15 14 16 15 13 17 24 19 15 25 18 13 14 16 24 26 30 42 48
22 32 32 26 28 32 31 24 19 25 25 27 20 16 17 14 15 16 22 20 18 18 24 24 22 15 15 14 13 15 16 12 15 17 16 14 16 14 12 13 12 21 38 45 48
24 37 33 24 30 35 28 29 30 30 26 27 26 22 20 17 16 16 18 15 18 18 16 19 24 16 14 13 14 13 11 14 16 23 23 18 21 17 14 10 10 15 28 41 50
23 40 33 34 37 33 23 26 32 30 30 29 28 28 21 20 18 18 17 17 21 17 19 17 20 17 14 15 15 15 15 17 15 17 19 21 17 15 19 16 15 13 23 29 48
21 40 43 41 40 55 38 40 36 30 28 27 27 28 25 20 19 19 19 20 29 18 20 18 18 22 18 15 13 13 14 14 18 23 20 20 16 11 13 12 16 20 30 36 40
46 49 46 46 43 42 40 34 32 26 26 26 24 24 25 24 27 22 26 29 26 27 21 18 21 24 20 17 16 16 15 14 14 16 21 21 16 13 16 20 18 26 38 28 33
51 46 46 44 51 41 42 39 32 30 27 28 26 26 26 28 30 29 29 26 28 31 39 23 22 23 21 21 22 24 17 16 15 18 17 17 15 14 13 17 15 19 36 36 38
52 68 73 53 50 47 44 40 36 35 31 31 29 29 33 32 35 32 31 28 26 29 34 28 28 28 25 25 28 29 24 19 18 16 19 14 18 14 16 16 21 39 48 40 52
72 70 65 64 66 48 48 44 40 38 36 30 32 30 30 38 35 36 31 33 32 26 28 32 36 42 37 28 30 35 28 23 19 16 19 18 19 15 18 32 38 37 48 48 56
53 61 74 59 56 49 44 47 43 44 38 36 40 35 31 34 40 37 35 28 26 29 31 34 35 41 38 33 36 35 30 26 21 17 16 20 16 18 24 35 34 39 46 51 46

GFSSW_850_rhum_168.txt.gz
RH
38 37 36 34 33 31 29 26 24 20 18 14 10 7 7 6 7 8 10 13 10 10 18 24 31 34 46 37 36 42 37 41 38 37 38 38 36 41 44 41 45 50 48 52 76
32 32 33 33 33 32 31 28 26 22 18 14 11 8 6 6 6 7 10 10 12 13 27 26 22 29 31 25 32 30 34 34 31 32 34 38 36 41 40 38 42 53 59 68 77
30 30 28 27 27 28 29 28 26 24 20 15 11 8 6 6 9 6 6 10 11 14 27 21 19 23 25 23 25 28 30 28 29 35 39 36 38 37 35 35 35 40 62 72 73
27 27 28 28 28 27 27 27 26 24 21 15 13 8 7 7 8 12 11 6 10 14 22 21 19 21 21 18 17 24 26 32 36 41 41 37 40 35 37 37 38 44 58 66 68
24 24 23 22 23 26 27 27 26 24 23 17 16 13 9 15 10 22 18 8 8 14 17 16 17 17 17 17 15 26 31 38 40 40 43 47 42 38 38 44 42 50 58 61 62
21 21 22 23 22 21 24 26 26 22 24 19 15 20 18 10 8 16 17 13 16 16 13 12 11 11 15 15 14 29 38 37 43 43 44 42 40 41 39 45 47 49 52 55 58
20 16 15 19 22 21 20 23 25 21 23 20 14 23 29 10 7 14 20 18 18 18 12 12 12 12 15 15 24 28 28 29 36 42 40 43 43 41 40 45 47 45 46 49 54
28 22 17 15 19 22 20 22 24 20 22 20 16 21 19 10 7 20 22 22 19 14 13 13 13 14 13 12 18 20 23 32 33 42 46 43 37 42 45 44 45 41 42 46 50
35 32 25 18 16 20 21 24 20 20 21 20 21 26 13 12 12 30 19 18 12 12 13 13 13 12 13 14 15 17 22 26 28 38 40 37 28 45 45 43 40 41 39 43 48
36 34 31 23 15 19 22 23 25 34 26 22 20 30 18 13 20 25 15 15 12 11 12 11 12 12 13 14 18 16 20 23 26 27 28 27 25 23 40 41 39 40 39 39 42
37 34 32 25 16 19 22 22 38 56 41 20 20 15 16 20 21 19 12 12 13 10 11 11 13 16 14 14 14 14 17 18 16 13 21 18 17 21 27 42 40 40 40 37 38
40 36 31 26 16 22 21 38 32 33 22 29 29 25 24 22 18 19 12 8 11 12 8 11 12 11 12 13 13 15 15 15 14 20 23 16 17 19 22 34 37 39 39 38 36
40 37 31 27 17 27 32 36 29 30 25 23 26 24 22 22 15 19 17 8 6 8 9 9 9 8 11 12 15 15 15 15 14 12 13 18 16 18 26 32 37 38 38 37 36
34 35 30 27 18 27 35 30 30 30 21 19 19 21 24 19 17 17 17 11 10 8 7 8 7 10 11 13 12 14 11 11 11 14 18 18 18 15 16 22 33 36 37 36 36
31 32 27 27 16 29 34 29 30 34 21 16 18 25 21 16 17 18 14 14 13 11 11 8 9 10 10 10 10 12 9 10 10 14 17 14 19 13 15 14 14 18 31 32 34
30 27 24 21 15 18 30 29 32 22 22 17 18 20 19 16 15 19 15 15 14 12 11 8 10 9 9 7 8 8 9 10 13 16 21 13 14 12 11 14 10 9 13 24 31
28 20 19 17 30 21 28 32 21 18 17 16 16 16 14 15 14 15 16 17 17 19 16 12 11 9 9 9 8 9 9 13 18 18 20 13 16 14 10 9 8 8 10 12 26
25 29 29 22 24 23 30 22 23 15 17 15 15 15 15 13 13 15 16 16 14 13 16 17 17 12 10 10 10 10 8 11 22 18 13 14 14 11 8 7 8 10 12 14 22
24 35 29 23 29 28 28 20 14 17 18 18 15 15 16 12 12 14 16 15 13 14 17 16 17 12 12 10 9 11 14 8 11 10 13 11 10 8 8 8 6 7 11 16 26
30 45 39 24 31 36 22 20 17 20 19 18 20 16 15 13 14 14 15 13 13 12 13 14 20 12 11 11 11 12 9 12 11 18 20 13 14 14 11 9 7 8 10 12 25
32 35 32 32 33 28 19 16 17 21 22 20 20 19 15 14 13 13 13 12 11 12 13 13 15 14 12 13 13 13 14 11 10 11 16 17 13 9 11 9 8 8 8 13 18
30 28 37 38 29 25 20 19 29 20 22 19 21 21 20 14 15 14 14 12 19 13 15 13 14 18 15 10 10 11 11 10 13 16 14 14 14 8 9 8 9 9 10 18 29
41 40 44 41 31 28 28 24 25 21 19 20 19 18 18 20 20 15 15 19 20 15 15 14 15 18 17 13 12 14 12 11 10 10 16 16 14 8 9 10 10 10 13 22 32
47 32 37 40 39 31 31 29 28 24 22 22 22 20 20 21 20 22 19 20 22 20 31 17 13 18 17 15 16 17 14 12 13 14 14 14 13 11 10 10 9 12 16 20 39
45 40 54 34 35 35 34 33 31 29 24 23 24 23 24 26 22 23 20 20 21 26 24 18 22 18 17 15 15 16 17 16 17 15 17 13 12 11 10 10 9 18 26 32 39
47 44 40 35 41 41 44 32 33 29 31 29 29 24 24 28 26 27 25 24 22 21 22 19 27 24 28 20 19 19 17 17 17 16 16 14 14 10 10 13 17 15 23 28 35
61 63 57 37 32 33 29 33 34 35 32 30 32 31 28 26 31 29 27 24 22 26 25 26 25 30 34 22 22 28 21 20 18 17 16 17 14 11 12 14 19 22 27 32 35

GFSSW_850_rhum_171.txt.gz
RH
34 34 34 33 32 30 28 26 24 22 19 16 12 8 7 6 7 8 14 16 15 11 20 35 28 25 32 28 26 28 53 49 38 49 32 28 33 29 31 30 34 37 36 41 60
29 29 29 28 29 29 28 28 25 23 20 16 13 9 7 6 6 18 16 13 12 11 23 26 19 21 27 21 22 24 34 31 26 28 27 31 29 30 32 28 33 40 42 49 56
28 28 28 28 27 27 27 26 26 24 22 17 13 9 6 6 14 11 13 12 12 12 25 20 15 17 22 19 18 22 29 26 26 30 31 29 30 30 29 45 32 37 46 51 54
24 23 23 23 24 26 27 26 26 24 22 18 13 9 6 6 11 24 7 10 12 13 24 19 15 16 19 16 15 22 24 28 31 33 31 30 32 31 30 33 30 37 46 47 60
22 21 22 22 22 21 22 25 26 25 23 20 14 13 7 20 10 16 11 6 10 16 18 15 15 17 17 15 14 19 25 30 32 31 32 35 33 32 32 36 34 40 44 45 60
21 18 16 17 20 21 19 21 24 25 22 21 14 18 22 13 11 22 31 9 18 24 16 14 13 13 12 14 13 20 27 28 32 31 32 32 31 33 32 36 37 40 38 42 49
31 26 21 16 15 20 20 19 22 24 21 22 16 17 32 12 11 27 27 19 17 20 15 11 11 12 12 12 15 19 22 22 28 30 28 31 38 32 32 36 37 38 35 39 41
35 33 30 22 16 17 20 19 22 22 20 22 18 16 21 15 14 28 24 18 16 17 13 11 12 13 13 12 12 16 16 33 26 27 33 32 49 32 34 35 36 35 33 37 40
36 33 32 28 19 15 18 20 22 20 20 21 22 28 13 12 9 23 20 16 12 14 13 12 13 13 13 13 13 12 18 21 27 25 27 27 28 32 33 33 33 34 31 34 39
37 34 32 30 22 16 18 22 21 28 24 20 36 25 14 10 8 21 16 14 9 8 11 12 12 12 12 12 15 13 14 18 21 23 20 18 20 17 31 32 32 33 32 32 36
39 37 34 30 24 16 20 20 43 54 43 19 16 12 10 10 16 16 14 13 10 8 9 10 11 12 11 11 10 12 13 15 15 12 15 17 15 13 18 30 31 32 32 30 33
34 35 34 30 24 18 21 34 25 26 19 24 18 14 15 13 15 14 11 10 11 9 7 8 11 8 8 10 11 12 12 13 12 14 14 14 13 13 16 23 28 30 30 32 30
34 29 33 30 23 19 29 28 29 27 20 16 17 17 16 15 10 14 11 8 8 10 7 8 7 6 7 10 12 11 12 11 13 12 11 12 14 11 17 20 24 28 29 30 30
33 26 31 28 23 32 32 29 30 28 22 15 15 15 15 14 10 12 13 7 6 6 6 6 5 6 7 10 9 12 9 10 11 13 16 13 16 12 13 20 21 25 27 28 29
30 26 27 27 27 26 30 29 28 28 26 13 14 18 16 12 11 12 13 10 9 7 6 7 6 6 8 7 7 9 8 9 9 11 13 13 15 11 11 13 13 20 22 23 26
28 24 23 24 24 22 30 29 28 21 21 14 14 14 14 12 11 12 12 12 10 10 8 8 6 6 6 6 6 6 7 7 8 9 15 13 13 11 10 12 10 9 15 20 21
26 21 19 20 25 24 28 27 21 18 13 14 14 12 13 13 11 13 11 12 14 17 15 10 8 6 7 8 6 6 7 10 11 11 13 10 12 11 9 8 8 8 9 10 16
24 27 28 27 32 30 31 22 26 12 12 10 11 11 13 11 11 12 12 13 11 11 11 14 13 9 7 8 8 8 7 9 14 13 13 11 14 10 7 6 6 7 7 10 10
24 32 41 37 34 34 27 22 15 12 12 12 12 13 12 11 11 11 13 13 11 11 14 13 14 10 8 8 8 8 10 6 7 7 10 10 9 7 6 7 6 6 7 8 12
27 33 30 32 34 31 23 23 13 12 14 13 16 11 13 12 12 12 12 11 11 10 9 11 16 11 10 9 9 9 7 11 10 15 17 12 12 11 10 9 7 7 7 10 14
34 28 32 30 32 27 21 14 12 12 14 14 14 13 13 11 10 11 11 10 10 10 10 11 12 12 10 12 12 11 12 10 9 10 13 14 12 9 10 9 8 7 7 8 11
32 22 33 30 24 19 17 14 19 13 16 13 14 16 15 13 12 11 11 10 10 9 12 10 11 15 13 9 8 9 10 10 13 15 11 12 11 6 8 8 8 8 8 9 16
31 24 32 30 26 20 18 20 18 16 15 14 14 12 12 15 17 13 10 13 13 11 12 11 13 16 15 10 9 11 10 9 9 9 13 14 12 7 8 9 8 8 9 11 18
35 22 27 28 24 25 23 23 21 19 18 17 17 15 16 16 14 17 14 12 15 13 22 16 13 14 14 13 12 15 12 11 10 12 12 12 11 10 9 9 9 9 11 13 21
32 26 31 25 24 24 22 23 24 23 19 19 20 18 18 21 17 16 15 14 16 22 18 16 19 15 13 12 12 13 13 13 14 13 16 13 12 10 10 10 9 9 11 17 24
35 33 31 24 24 26 31 24 24 22 21 24 23 19 19 23 22 22 21 18 17 16 19 15 22 19 20 15 14 16 14 13 12 12 13 13 14 10 9 10 10 12 11 18 22
41 42 40 27 21 23 21 23 25 24 25 24 23 26 26 23 26 23 23 21 19 20 22 21 20 22 26 18 18 22 18 16 15 13 14 16 13 10 10 11 11 14 18 22 29